Weather History for KJDN - February, 2013

Change the Weather History Date:

Tuesday, February 12, 2013

  Actual Average Record
Temperature  
Mean Temperature 34 °F 22 °F  
Max Temperature 45 °F 34 °F - ()
Min Temperature 23 °F 9 °F - ()
Degree Days  
Heating Degree Days 31 43  
Month to date heating degree days 399 536  
Since 1 July heating degree days 4890 5466  
Cooling Degree Days 0 0  
Month to date cooling degree days 0 0  
Year to date cooling degree days 0 0  
Moisture  
Dew Point 23 °F    
Average Humidity 67    
Maximum Humidity 88    
Minimum Humidity 45    
Precipitation  
Precipitation 0.00 in 0.01 in - ()
Month to date precipitation 0.02 0.09  
Year to date precipitation 0.35 0.32  
Snow  
Snow 0.00 in - - ()
Month to date snowfall 0.0  
Since 1 July snowfall 0.0  
Snow Depth 0.00 in    
Sea Level Pressure  
Sea Level Pressure 29.97 in    
Wind  
Wind Speed 9 mph (West)    
Max Wind Speed 22 mph    
Max Gust Speed 28 mph    
T = Trace of Precipitation, MM = Missing Value Source: NWS Daily Summary

Daily Weather History Graph

Daily Weather History Graph

Search for Another Location

Airport or City:

Trip Planner

Search our weather history database for the weather conditions in past years. The results will help you decide how hot, cold, wet, or windy it might be!

Date:

Astronomy

Feb. 12, 2013 Rise Set
Actual Time 7:17 AM MST 5:27 PM MST
Civil Twilight 6:45 AM MST 5:59 PM MST
Nautical Twilight 6:09 AM MST 6:35 PM MST
Astronomical Twilight 5:34 AM MST 7:10 PM MST
Moon 8:01 AM MST (2/12) 8:48 PM MST (2/12)
Length of Visible Light 11h 13m
Length of Day
10h 10m
Waxing Crescent, 8% of the Moon is Illuminated
Feb 12
Waxing Crescent
Feb 17
First Quarter
Feb 25
Full
Mar 4
Last Quarter
Mar 11
New

Hourly Weather History & Observations

Time (MST) Temp. Windchill Dew Point Humidity Pressure Visibility Wind Dir Wind Speed Gust Speed Precip Events Conditions
12:48 AM 27.0 °F 18.0 °F 21.9 °F 81% 29.99 in - West 9.2 mph - N/A   Unknown
1:48 AM 27.0 °F 18.7 °F 21.0 °F 78% 29.98 in - WNW 8.1 mph - N/A   Unknown
2:48 AM 26.1 °F 17.6 °F 21.0 °F 81% 29.99 in - West 8.1 mph - N/A   Unknown
3:48 AM 25.0 °F 16.3 °F 19.9 °F 81% 29.99 in - West 8.1 mph - N/A   Unknown
4:48 AM 27.0 °F 16.7 °F 21.0 °F 78% 30.01 in - West 11.5 mph - N/A   Unknown
5:48 AM 23.0 °F 14.7 °F 19.0 °F 85% 30.03 in - West 6.9 mph - N/A   Unknown
6:48 AM 25.0 °F 18.1 °F 19.9 °F 81% 30.03 in - West 5.8 mph - N/A   Unknown
7:48 AM 27.0 °F 18.0 °F 21.0 °F 78% 30.04 in - West 9.2 mph - N/A   Unknown
8:48 AM 30.0 °F 21.1 °F 21.9 °F 72% 30.05 in - West 10.4 mph - N/A   Unknown
9:48 AM 33.1 °F 25.5 °F 23.0 °F 66% 30.05 in - West 9.2 mph - N/A   Unknown
10:48 AM 39.0 °F 32.8 °F 23.0 °F 53% 30.03 in - West 9.2 mph - N/A   Unknown
11:48 AM 42.1 °F 34.5 °F 24.1 °F 49% 30.01 in - WNW 15.0 mph - N/A   Unknown
12:48 PM 42.1 °F 32.8 °F 24.1 °F 49% 29.98 in - WNW 21.9 mph 27.6 mph N/A   Unknown
1:48 PM 44.1 °F 36.2 °F 25.0 °F 47% 29.96 in - WNW 18.4 mph 25.3 mph N/A   Unknown
2:48 PM 44.1 °F 36.5 °F 24.1 °F 45% 29.95 in - West 17.3 mph 23.0 mph N/A   Unknown
3:48 PM 43.0 °F 36.4 °F 25.0 °F 49% 29.95 in - WNW 12.7 mph - N/A   Unknown
4:48 PM 39.9 °F 34.5 °F 26.1 °F 58% 29.95 in - West 8.1 mph - N/A   Unknown
5:48 PM 37.9 °F - 26.1 °F 62% 29.96 in - Calm Calm - N/A   Unknown
6:48 PM 36.0 °F - 26.1 °F 67% 29.94 in - Calm Calm - N/A   Unknown
7:48 PM 32.0 °F 28.7 °F 25.0 °F 75% 29.92 in - WSW 3.5 mph - N/A   Unknown
8:48 PM 34.0 °F 28.0 °F 26.1 °F 73% 29.89 in - West 6.9 mph - N/A   Unknown
9:48 PM 35.1 °F 29.3 °F 26.1 °F 70% 29.86 in - West 6.9 mph - N/A   Unknown
10:48 PM 32.0 °F 24.8 °F 26.1 °F 79% 29.84 in - West 8.1 mph - N/A   Unknown
11:48 PM 32.0 °F 24.2 °F 25.0 °F 75% 29.81 in - WSW 9.2 mph - N/A   Unknown